Time,TemperatureF,DewpointF,PressureIn,WindDirection,WindDirectionDegrees,WindSpeedMPH,WindSpeedGustMPH,Humidity,HourlyPrecipIn,Conditions,Clouds,dailyrainin,SoftwareType,DateUTC
2013-09-17 00:00:00,55.9,45.5,30.35,NE,45,4.5,6.9,68,0.00,,,0.00,pywws,2013-09-17 04:00:00,
2013-09-17 00:01:00,55.9,45.5,30.35,North,0,3.8,8.3,68,0.00,,,0.00,pywws,2013-09-17 04:01:00,
2013-09-17 00:02:00,55.8,45.4,30.35,North,0,5.4,13.0,68,0.00,,,0.00,pywws,2013-09-17 04:02:00,
2013-09-17 00:04:00,55.8,45.4,30.35,North,0,3.8,7.6,68,0.00,,,0.00,pywws,2013-09-17 04:04:00,
2013-09-17 00:05:00,55.8,45.4,30.36,NNE,22,4.5,6.0,68,0.00,,,0.00,pywws,2013-09-17 04:05:00,
2013-09-17 00:09:00,55.6,45.2,30.36,NE,45,3.8,5.4,68,0.00,,,0.00,pywws,2013-09-17 04:09:00,
2013-09-17 00:14:00,55.4,45.0,30.36,NE,45,4.5,10.7,68,0.00,,,0.00,pywws,2013-09-17 04:14:00,
2013-09-17 00:20:00,55.2,44.8,30.36,WNW,292,3.1,9.2,68,0.00,,,0.00,pywws,2013-09-17 04:20:00,
2013-09-17 00:25:00,55.0,44.7,30.36,North,0,2.2,6.0,68,0.00,,,0.00,pywws,2013-09-17 04:25:00,
2013-09-17 00:31:00,54.9,44.5,30.37,East,90,7.6,12.1,68,0.00,,,0.00,pywws,2013-09-17 04:31:00,
2013-09-17 00:36:00,54.7,44.3,30.37,NNE,22,4.5,11.4,68,0.00,,,0.00,pywws,2013-09-17 04:36:00,
2013-09-17 00:42:00,54.5,43.8,30.37,East,90,2.2,5.4,67,0.00,,,0.00,pywws,2013-09-17 04:42:00,
2013-09-17 00:48:00,54.1,43.4,30.37,North,0,3.1,7.6,67,0.00,,,0.00,pywws,2013-09-17 04:48:00,
2013-09-17 00:53:00,54.1,43.0,30.38,North,0,3.8,6.0,66,0.00,,,0.00,pywws,2013-09-17 04:53:00,
2013-09-17 00:59:00,54.0,42.9,30.37,North,0,4.5,7.6,66,0.00,,,0.00,pywws,2013-09-17 04:59:00,
2013-09-17 01:04:00,53.8,42.7,30.37,North,0,6.0,11.4,66,0.00,,,0.00,pywws,2013-09-17 05:04:00,
2013-09-17 01:10:00,53.6,42.1,30.38,South,180,1.6,3.8,65,0.00,,,0.00,pywws,2013-09-17 05:10:00,
2013-09-17 01:16:00,53.4,42.3,30.38,North,0,1.6,4.5,66,0.00,,,0.00,pywws,2013-09-17 05:16:00,
2013-09-17 01:21:00,53.2,42.2,30.39,North,0,1.6,3.1,66,0.00,,,0.00,pywws,2013-09-17 05:21:00,
2013-09-17 01:27:00,53.1,42.0,30.39,SW,225,0.7,3.1,66,0.00,,,0.00,pywws,2013-09-17 05:27:00,
2013-09-17 01:32:00,52.7,41.7,30.39,NE,45,3.1,8.3,66,0.00,,,0.00,pywws,2013-09-17 05:32:00,
2013-09-17 01:38:00,52.5,41.1,30.39,NNW,338,3.1,4.5,65,0.00,,,0.00,pywws,2013-09-17 05:38:00,
2013-09-17 01:44:00,52.3,40.5,30.39,NE,45,4.5,7.6,64,0.00,,,0.00,pywws,2013-09-17 05:44:00,
2013-09-17 01:49:00,52.3,40.5,30.39,NE,45,0.7,1.6,64,0.00,,,0.00,pywws,2013-09-17 05:49:00,
2013-09-17 01:55:00,52.2,40.4,30.40,North,0,3.1,5.4,64,0.00,,,0.00,pywws,2013-09-17 05:55:00,
2013-09-17 02:00:00,52.2,40.4,30.40,NE,45,3.1,6.0,64,0.00,,,0.00,pywws,2013-09-17 06:00:00,
2013-09-17 02:06:00,52.2,40.4,30.40,NE,45,3.1,6.0,64,0.00,,,0.00,pywws,2013-09-17 06:06:00,
2013-09-17 02:17:00,51.6,40.2,30.40,NE,45,5.4,8.3,65,0.00,,,0.00,pywws,2013-09-17 06:17:00,
2013-09-17 02:23:00,51.6,39.8,30.40,NW,315,6.0,10.7,64,0.00,,,0.00,pywws,2013-09-17 06:23:00,
2013-09-17 02:28:00,51.4,39.7,30.40,NE,45,0.7,2.2,64,0.00,,,0.00,pywws,2013-09-17 06:28:00,
2013-09-17 02:34:00,51.3,39.5,30.40,NE,45,9.8,11.4,64,0.00,,,0.00,pywws,2013-09-17 06:34:00,
2013-09-17 02:40:00,51.3,39.5,30.40,North,0,5.4,15.2,64,0.00,,,0.00,pywws,2013-09-17 06:40:00,
2013-09-17 02:45:00,51.3,39.5,30.40,SE,135,1.6,3.1,64,0.00,,,0.00,pywws,2013-09-17 06:45:00,
2013-09-17 02:51:00,51.1,39.3,30.41,East,90,3.1,8.3,64,0.00,,,0.00,pywws,2013-09-17 06:51:00,
2013-09-17 02:56:00,50.9,38.8,30.41,NE,45,1.6,2.2,63,0.00,,,0.00,pywws,2013-09-17 06:56:00,
2013-09-17 03:08:00,50.5,38.8,30.42,NNE,22,2.2,7.6,64,0.00,,,0.00,pywws,2013-09-17 07:08:00,
2013-09-17 03:13:00,50.4,38.6,30.42,NW,315,0.7,2.2,64,0.00,,,0.00,pywws,2013-09-17 07:13:00,
2013-09-17 03:19:00,50.2,38.5,30.42,SW,225,3.8,5.4,64,0.00,,,0.00,pywws,2013-09-17 07:19:00,
2013-09-17 03:24:00,50.0,38.7,30.42,NE,45,5.4,9.2,65,0.00,,,0.00,pywws,2013-09-17 07:24:00,
2013-09-17 03:30:00,49.8,38.9,30.42,East,90,0.7,2.2,66,0.00,,,0.00,pywws,2013-09-17 07:30:00,
2013-09-17 03:36:00,49.8,38.9,30.42,SE,135,3.1,3.8,66,0.00,,,0.00,pywws,2013-09-17 07:36:00,
2013-09-17 03:41:00,49.6,38.8,30.42,NE,45,1.6,5.4,66,0.00,,,0.00,pywws,2013-09-17 07:41:00,
2013-09-17 03:47:00,49.5,38.6,30.42,SE,135,0.7,2.2,66,0.00,,,0.00,pywws,2013-09-17 07:47:00,
2013-09-17 03:52:00,49.3,38.8,30.42,North,0,0.7,2.2,67,0.00,,,0.00,pywws,2013-09-17 07:52:00,
2013-09-17 03:58:00,49.1,38.6,30.42,East,90,0.7,1.6,67,0.00,,,0.00,pywws,2013-09-17 07:58:00,
2013-09-17 04:07:00,48.9,38.5,30.42,SE,135,1.6,2.2,67,0.00,,,0.00,pywws,2013-09-17 08:07:00,
2013-09-17 04:12:00,48.6,38.5,30.42,NE,45,0.0,1.6,68,0.00,,,0.00,pywws,2013-09-17 08:12:00,
2013-09-17 04:18:00,48.4,38.3,30.42,North,0,0.7,1.6,68,0.00,,,0.00,pywws,2013-09-17 08:18:00,
2013-09-17 04:24:00,48.4,38.3,30.42,NE,45,0.7,3.1,68,0.00,,,0.00,pywws,2013-09-17 08:24:00,
2013-09-17 04:29:00,48.2,38.1,30.43,NE,45,0.7,1.6,68,0.00,,,0.00,pywws,2013-09-17 08:29:00,
2013-09-17 04:35:00,48.2,38.5,30.42,SE,135,4.5,6.9,69,0.00,,,0.00,pywws,2013-09-17 08:35:00,
2013-09-17 04:40:00,48.2,38.5,30.43,NE,45,0.7,2.2,69,0.00,,,0.00,pywws,2013-09-17 08:40:00,
2013-09-17 04:46:00,48.4,38.7,30.42,SE,135,4.5,6.9,69,0.00,,,0.00,pywws,2013-09-17 08:46:00,
2013-09-17 04:52:00,48.4,38.7,30.43,North,0,2.2,4.5,69,0.00,,,0.00,pywws,2013-09-17 08:52:00,
2013-09-17 04:57:00,48.4,38.7,30.43,NE,45,2.2,3.8,69,0.00,,,0.00,pywws,2013-09-17 08:57:00,
2013-09-17 05:03:00,48.4,38.7,30.43,North,0,0.7,2.2,69,0.00,,,0.00,pywws,2013-09-17 09:03:00,
2013-09-17 05:09:00,48.4,38.7,30.43,NE,45,3.1,6.0,69,0.00,,,0.00,pywws,2013-09-17 09:09:00,
2013-09-17 05:15:00,48.2,38.5,30.43,NE,45,2.2,3.1,69,0.00,,,0.00,pywws,2013-09-17 09:15:00,
2013-09-17 05:20:00,48.2,38.5,30.44,North,0,3.1,5.4,69,0.00,,,0.00,pywws,2013-09-17 09:20:00,
2013-09-17 05:26:00,48.2,38.5,30.44,North,0,3.1,5.4,69,0.00,,,0.00,pywws,2013-09-17 09:26:00,
2013-09-17 05:32:00,48.2,38.5,30.44,NE,45,0.7,1.6,69,0.00,,,0.00,pywws,2013-09-17 09:32:00,
2013-09-17 05:37:00,48.0,38.7,30.44,North,0,2.2,3.1,70,0.00,,,0.00,pywws,2013-09-17 09:37:00,
2013-09-17 05:43:00,48.0,38.7,30.45,East,90,3.1,5.4,70,0.00,,,0.00,pywws,2013-09-17 09:43:00,
2013-09-17 05:48:00,47.8,38.5,30.45,North,0,4.5,6.0,70,0.00,,,0.00,pywws,2013-09-17 09:48:00,
2013-09-17 05:54:00,47.7,38.4,30.45,North,0,0.7,2.2,70,0.00,,,0.00,pywws,2013-09-17 09:54:00,
2013-09-17 06:00:00,47.7,38.4,30.46,NE,45,1.6,2.2,70,0.00,,,0.00,pywws,2013-09-17 10:00:00,
2013-09-17 06:16:00,47.5,38.2,30.47,NNW,338,1.6,2.2,70,0.00,,,0.00,pywws,2013-09-17 10:16:00,
2013-09-17 06:22:00,47.3,38.4,30.47,NE,45,0.7,1.6,71,0.00,,,0.00,pywws,2013-09-17 10:22:00,
2013-09-17 06:28:00,47.3,38.4,30.47,NNE,22,3.1,3.8,71,0.00,,,0.00,pywws,2013-09-17 10:28:00,
2013-09-17 06:33:00,47.3,38.0,30.48,East,90,0.7,2.2,70,0.00,,,0.00,pywws,2013-09-17 10:33:00,
2013-09-17 06:40:00,47.1,38.2,30.48,SW,225,2.2,3.8,71,0.00,,,0.00,pywws,2013-09-17 10:40:00,
2013-09-17 06:45:00,46.9,38.0,30.49,NNW,338,1.6,4.5,71,0.00,,,0.00,pywws,2013-09-17 10:45:00,
2013-09-17 06:51:00,46.9,38.0,30.49,NNW,338,1.6,4.5,71,0.00,,,0.00,pywws,2013-09-17 10:51:00,
2013-09-17 06:56:00,46.8,38.2,30.49,NNW,338,3.1,3.8,72,0.00,,,0.00,pywws,2013-09-17 10:56:00,
2013-09-17 07:02:00,46.9,38.0,30.49,NE,45,7.6,9.8,71,0.00,,,0.00,pywws,2013-09-17 11:02:00,
2013-09-17 07:08:00,47.1,38.2,30.49,NNE,22,0.7,1.6,71,0.00,,,0.00,pywws,2013-09-17 11:08:00,
2013-09-17 07:13:00,47.1,38.2,30.49,East,90,2.2,4.5,71,0.00,,,0.00,pywws,2013-09-17 11:13:00,
2013-09-17 07:20:00,47.3,38.4,30.49,NNE,22,3.8,6.9,71,0.00,,,0.00,pywws,2013-09-17 11:20:00,
2013-09-17 07:25:00,47.5,38.6,30.49,North,0,1.6,3.1,71,0.00,,,0.00,pywws,2013-09-17 11:25:00,
2013-09-17 07:31:00,47.7,39.1,30.50,NE,45,1.6,3.1,72,0.00,,,0.00,pywws,2013-09-17 11:31:00,
2013-09-17 07:36:00,47.7,39.1,30.50,East,90,3.1,4.5,72,0.00,,,0.00,pywws,2013-09-17 11:36:00,
2013-09-17 08:05:00,51.4,41.2,30.50,SE,135,0.7,2.2,68,0.00,,,0.00,pywws,2013-09-17 12:05:00,
2013-09-17 08:11:00,52.0,40.6,30.50,NE,45,6.0,11.4,65,0.00,,,0.00,pywws,2013-09-17 12:11:00,
2013-09-17 08:16:00,52.5,41.1,30.51,NE,45,1.6,3.1,65,0.00,,,0.00,pywws,2013-09-17 12:16:00,
2013-09-17 08:22:00,52.7,40.9,30.51,SE,135,1.6,4.5,64,0.00,,,0.00,pywws,2013-09-17 12:22:00,
2013-09-17 08:28:00,53.6,41.3,30.51,East,90,2.2,6.0,63,0.00,,,0.00,pywws,2013-09-17 12:28:00,
2013-09-17 08:33:00,54.1,41.4,30.51,NE,45,2.2,3.8,62,0.00,,,0.00,pywws,2013-09-17 12:33:00,
2013-09-17 08:40:00,55.2,42.4,30.52,WNW,292,1.6,3.8,62,0.00,,,0.00,pywws,2013-09-17 12:40:00,
2013-09-17 08:46:00,55.9,42.3,30.52,NW,315,2.2,4.5,60,0.00,,,0.00,pywws,2013-09-17 12:46:00,
2013-09-17 12:19:00,62.8,42.8,30.52,NE,45,0.7,2.2,48,0.00,,,0.00,pywws,2013-09-17 16:19:00,
2013-09-17 12:24:00,63.3,42.7,30.52,WNW,292,2.2,3.8,47,0.00,,,0.00,pywws,2013-09-17 16:24:00,
2013-09-17 12:30:00,63.7,43.6,30.51,NE,45,4.5,6.9,48,0.00,,,0.00,pywws,2013-09-17 16:30:00,
2013-09-17 12:36:00,64.0,43.4,30.51,North,0,3.8,5.4,47,0.00,,,0.00,pywws,2013-09-17 16:36:00,
2013-09-17 12:41:00,64.0,42.8,30.51,NW,315,2.2,4.5,46,0.00,,,0.00,pywws,2013-09-17 16:41:00,
2013-09-17 12:47:00,64.0,43.9,30.51,North,0,1.6,3.8,48,0.00,,,0.00,pywws,2013-09-17 16:47:00,
2013-09-17 12:52:00,64.4,43.7,30.51,East,90,2.2,4.5,47,0.00,,,0.00,pywws,2013-09-17 16:52:00,
2013-09-17 12:58:00,64.4,43.2,30.50,North,0,4.5,6.9,46,0.00,,,0.00,pywws,2013-09-17 16:58:00,
2013-09-17 13:07:00,64.6,44.4,30.50,North,0,3.1,4.5,48,0.00,,,0.00,pywws,2013-09-17 17:07:00,
2013-09-17 13:12:00,64.9,44.8,30.50,NE,45,1.6,3.1,48,0.00,,,0.00,pywws,2013-09-17 17:12:00,
2013-09-17 13:18:00,64.8,43.5,30.50,NNE,22,3.8,6.0,46,0.00,,,0.00,pywws,2013-09-17 17:18:00,
2013-09-17 13:23:00,64.4,43.2,30.50,NW,315,1.6,3.8,46,0.00,,,0.00,pywws,2013-09-17 17:23:00,
2013-09-17 13:28:00,64.6,43.9,30.50,SE,135,1.6,3.1,47,0.00,,,0.00,pywws,2013-09-17 17:28:00,
2013-09-17 13:34:00,64.8,43.5,30.50,East,90,3.8,5.4,46,0.00,,,0.00,pywws,2013-09-17 17:34:00,
2013-09-17 13:40:00,64.8,44.6,30.49,NE,45,0.7,1.6,48,0.00,,,0.00,pywws,2013-09-17 17:40:00,
2013-09-17 13:45:00,64.9,43.7,30.49,East,90,3.1,4.5,46,0.00,,,0.00,pywws,2013-09-17 17:45:00,
2013-09-17 13:51:00,64.9,44.2,30.49,North,0,3.8,6.9,47,0.00,,,0.00,pywws,2013-09-17 17:51:00,
2013-09-17 13:56:00,64.8,43.5,30.49,NNE,22,2.2,4.5,46,0.00,,,0.00,pywws,2013-09-17 17:56:00,
2013-09-17 14:07:00,64.4,43.2,30.48,North,0,6.0,9.8,46,0.00,,,0.00,pywws,2013-09-17 18:07:00,
2013-09-17 14:12:00,64.4,43.7,30.48,NE,45,1.6,3.8,47,0.00,,,0.00,pywws,2013-09-17 18:12:00,
2013-09-17 14:18:00,64.4,43.7,30.48,NE,45,2.2,3.8,47,0.00,,,0.00,pywws,2013-09-17 18:18:00,
2013-09-17 14:24:00,64.2,41.8,30.48,East,90,4.5,6.0,44,0.00,,,0.00,pywws,2013-09-17 18:24:00,
2013-09-17 14:29:00,63.5,42.3,30.47,West,270,1.6,3.8,46,0.00,,,0.00,pywws,2013-09-17 18:29:00,
2013-09-17 14:35:00,63.7,42.5,30.47,NE,45,3.1,3.8,46,0.00,,,0.00,pywws,2013-09-17 18:35:00,
2013-09-17 14:40:00,63.5,42.9,30.47,NE,45,3.1,6.9,47,0.00,,,0.00,pywws,2013-09-17 18:40:00,
2013-09-17 14:46:00,63.7,42.5,30.47,NW,315,3.1,4.5,46,0.00,,,0.00,pywws,2013-09-17 18:46:00,
2013-09-17 14:52:00,63.7,43.1,30.47,East,90,1.6,3.1,47,0.00,,,0.00,pywws,2013-09-17 18:52:00,
2013-09-17 14:57:00,64.0,43.4,30.47,North,0,2.2,3.8,47,0.00,,,0.00,pywws,2013-09-17 18:57:00,
2013-09-17 15:03:00,64.4,43.7,30.47,South,180,3.8,8.3,47,0.00,,,0.00,pywws,2013-09-17 19:03:00,
2013-09-17 15:08:00,64.4,43.7,30.46,North,0,0.7,1.6,47,0.00,,,0.00,pywws,2013-09-17 19:08:00,
2013-09-17 15:14:00,64.4,43.2,30.46,WNW,292,0.7,2.2,46,0.00,,,0.00,pywws,2013-09-17 19:14:00,
2013-09-17 15:20:00,64.2,41.8,30.46,SE,135,3.1,4.5,44,0.00,,,0.00,pywws,2013-09-17 19:20:00,
2013-09-17 15:25:00,63.9,41.5,30.46,ESE,112,2.2,3.8,44,0.00,,,0.00,pywws,2013-09-17 19:25:00,
2013-09-17 15:31:00,63.5,41.8,30.46,North,0,1.6,2.2,45,0.00,,,0.00,pywws,2013-09-17 19:31:00,
2013-09-17 15:36:00,63.7,42.5,30.46,East,90,2.2,3.8,46,0.00,,,0.00,pywws,2013-09-17 19:36:00,
2013-09-17 15:42:00,63.9,42.7,30.45,East,90,3.8,6.0,46,0.00,,,0.00,pywws,2013-09-17 19:42:00,
2013-09-17 15:48:00,63.5,41.2,30.45,SE,135,0.0,0.7,44,0.00,,,0.00,pywws,2013-09-17 19:48:00,
2013-09-17 15:53:00,63.7,42.5,30.45,NW,315,2.2,3.8,46,0.00,,,0.00,pywws,2013-09-17 19:53:00,
2013-09-17 15:59:00,64.0,42.3,30.45,North,0,6.0,8.3,45,0.00,,,0.00,pywws,2013-09-17 19:59:00,
2013-09-17 16:04:00,64.4,43.2,30.45,NE,45,0.7,3.1,46,0.00,,,0.00,pywws,2013-09-17 20:04:00,
2013-09-17 16:10:00,64.6,42.8,30.45,East,90,0.7,1.6,45,0.00,,,0.00,pywws,2013-09-17 20:10:00,
2013-09-17 16:16:00,64.2,42.4,30.45,East,90,3.1,3.8,45,0.00,,,0.00,pywws,2013-09-17 20:16:00,
2013-09-17 16:21:00,63.9,42.1,30.45,North,0,1.6,3.1,45,0.00,,,0.00,pywws,2013-09-17 20:21:00,
2013-09-17 16:27:00,63.7,42.5,30.45,NE,45,2.2,3.1,46,0.00,,,0.00,pywws,2013-09-17 20:27:00,
2013-09-17 16:32:00,63.9,42.1,30.45,SW,225,0.0,1.6,45,0.00,,,0.00,pywws,2013-09-17 20:32:00,
2013-09-17 16:38:00,63.9,42.1,30.45,North,0,2.2,6.0,45,0.00,,,0.00,pywws,2013-09-17 20:38:00,
2013-09-17 16:44:00,63.9,42.1,30.45,North,0,2.2,5.4,45,0.00,,,0.00,pywws,2013-09-17 20:44:00,
2013-09-17 16:49:00,63.9,42.1,30.45,SE,135,2.2,3.8,45,0.00,,,0.00,pywws,2013-09-17 20:49:00,
2013-09-17 16:55:00,63.7,41.9,30.45,SE,135,1.6,4.5,45,0.00,,,0.00,pywws,2013-09-17 20:55:00,
2013-09-17 17:00:00,63.7,42.5,30.45,East,90,0.7,2.2,46,0.00,,,0.00,pywws,2013-09-17 21:00:00,
2013-09-17 17:06:00,63.5,41.8,30.45,East,90,2.2,4.5,45,0.00,,,0.00,pywws,2013-09-17 21:06:00,
2013-09-17 17:12:00,63.9,42.7,30.45,North,0,3.1,4.5,46,0.00,,,0.00,pywws,2013-09-17 21:12:00,
2013-09-17 17:17:00,64.0,42.8,30.45,East,90,0.0,1.6,46,0.00,,,0.00,pywws,2013-09-17 21:17:00,
2013-09-17 17:23:00,63.9,41.5,30.45,East,90,2.2,4.5,44,0.00,,,0.00,pywws,2013-09-17 21:23:00,
2013-09-17 17:28:00,63.9,43.2,30.45,East,90,0.0,0.7,47,0.00,,,0.00,pywws,2013-09-17 21:28:00,
2013-09-17 17:34:00,63.9,42.7,30.44,East,90,0.7,1.6,46,0.00,,,0.00,pywws,2013-09-17 21:34:00,
2013-09-17 17:40:00,63.7,43.1,30.44,ESE,112,1.6,3.8,47,0.00,,,0.00,pywws,2013-09-17 21:40:00,
2013-09-17 17:45:00,63.5,42.9,30.44,ESE,112,0.7,2.2,47,0.00,,,0.00,pywws,2013-09-17 21:45:00,
2013-09-17 17:51:00,63.3,42.2,30.44,East,90,2.2,3.1,46,0.00,,,0.00,pywws,2013-09-17 21:51:00,
2013-09-17 17:56:00,63.0,42.4,30.44,NE,45,1.6,3.8,47,0.00,,,0.00,pywws,2013-09-17 21:56:00,
2013-09-17 18:02:00,62.6,42.1,30.44,East,90,2.2,3.8,47,0.00,,,0.00,pywws,2013-09-17 22:02:00,
2013-09-17 18:08:00,62.4,42.5,30.44,East,90,0.7,1.6,48,0.00,,,0.00,pywws,2013-09-17 22:08:00,
2013-09-17 18:13:00,62.2,42.8,30.44,ESE,112,1.6,3.8,49,0.00,,,0.00,pywws,2013-09-17 22:13:00,
2013-09-17 18:19:00,62.1,42.7,30.44,SE,135,0.7,1.6,49,0.00,,,0.00,pywws,2013-09-17 22:19:00,
2013-09-17 18:24:00,61.7,42.3,30.44,SE,135,0.7,2.2,49,0.00,,,0.00,pywws,2013-09-17 22:24:00,
2013-09-17 18:30:00,61.5,42.7,30.44,NE,45,0.0,1.6,50,0.00,,,0.00,pywws,2013-09-17 22:30:00,
2013-09-17 18:36:00,61.3,43.1,30.44,NE,45,0.7,1.6,51,0.00,,,0.00,pywws,2013-09-17 22:36:00,
2013-09-17 18:41:00,61.2,42.9,30.44,East,90,0.0,1.6,51,0.00,,,0.00,pywws,2013-09-17 22:41:00,
2013-09-17 18:47:00,60.8,43.1,30.43,NE,45,0.0,0.7,52,0.00,,,0.00,pywws,2013-09-17 22:47:00,
2013-09-17 18:52:00,60.4,43.2,30.44,South,180,0.0,0.0,53,0.00,,,0.00,pywws,2013-09-17 22:52:00,
2013-09-17 18:58:00,60.3,43.1,30.43,SE,135,0.0,0.0,53,0.00,,,0.00,pywws,2013-09-17 22:58:00,
2013-09-17 19:04:00,59.9,42.7,30.44,SE,135,0.0,0.7,53,0.00,,,0.00,pywws,2013-09-17 23:04:00,
2013-09-17 19:10:00,59.7,43.0,30.44,SE,135,0.0,0.7,54,0.00,,,0.00,pywws,2013-09-17 23:10:00,
2013-09-17 19:16:00,59.4,42.7,30.44,SE,135,0.0,0.0,54,0.00,,,0.00,pywws,2013-09-17 23:16:00,
2013-09-17 19:21:00,59.0,42.9,30.43,SE,135,0.0,0.0,55,0.00,,,0.00,pywws,2013-09-17 23:21:00,
2013-09-17 19:27:00,58.6,43.0,30.43,East,90,0.0,0.0,56,0.00,,,0.00,pywws,2013-09-17 23:27:00,
2013-09-17 19:32:00,58.5,43.3,30.43,East,90,0.0,0.0,57,0.00,,,0.00,pywws,2013-09-17 23:32:00,
2013-09-17 19:38:00,58.1,42.9,30.43,East,90,0.0,0.0,57,0.00,,,0.00,pywws,2013-09-17 23:38:00,
2013-09-17 19:43:00,57.9,43.2,30.43,East,90,0.0,0.0,58,0.00,,,0.00,pywws,2013-09-17 23:43:00,
2013-09-17 19:48:00,57.6,42.9,30.43,East,90,0.0,0.0,58,0.00,,,0.00,pywws,2013-09-17 23:48:00,
2013-09-17 19:54:00,57.4,43.2,30.43,SE,135,0.0,0.0,59,0.00,,,0.00,pywws,2013-09-17 23:54:00,
2013-09-17 20:00:00,57.0,43.3,30.44,SE,135,0.0,0.0,60,0.00,,,0.00,pywws,2013-09-18 00:00:00,
2013-09-17 20:06:00,56.8,43.1,30.44,SE,135,0.0,0.0,60,0.00,,,0.00,pywws,2013-09-18 00:06:00,
2013-09-17 20:12:00,56.7,43.4,30.44,North,0,0.0,0.0,61,0.00,,,0.00,pywws,2013-09-18 00:12:00,
2013-09-17 20:17:00,56.3,43.4,30.44,West,270,0.0,0.7,62,0.00,,,0.00,pywws,2013-09-18 00:17:00,
2013-09-17 20:23:00,56.1,44.1,30.45,NW,315,0.0,0.0,64,0.00,,,0.00,pywws,2013-09-18 00:23:00,
2013-09-17 20:28:00,55.8,43.8,30.44,SE,135,0.0,0.0,64,0.00,,,0.00,pywws,2013-09-18 00:28:00,
2013-09-17 20:34:00,55.6,43.2,30.45,North,0,0.0,0.0,63,0.00,,,0.00,pywws,2013-09-18 00:34:00,
2013-09-17 20:40:00,55.6,44.0,30.44,North,0,0.0,0.0,65,0.00,,,0.00,pywws,2013-09-18 00:40:00,
2013-09-17 20:46:00,55.4,43.8,30.45,North,0,0.0,0.0,65,0.00,,,0.00,pywws,2013-09-18 00:46:00,
2013-09-17 20:53:00,55.4,43.8,30.45,North,0,0.0,0.0,65,0.00,,,0.00,pywws,2013-09-18 00:53:00,
2013-09-17 20:59:00,55.2,43.7,30.45,East,90,0.0,0.0,65,0.00,,,0.00,pywws,2013-09-18 00:59:00,
2013-09-17 21:04:00,55.0,43.9,30.45,East,90,0.0,0.0,66,0.00,,,0.00,pywws,2013-09-18 01:04:00,
2013-09-17 21:10:00,54.9,43.7,30.45,East,90,0.0,0.0,66,0.00,,,0.00,pywws,2013-09-18 01:10:00,
2013-09-17 21:15:00,54.7,43.9,30.45,East,90,0.0,0.0,67,0.00,,,0.00,pywws,2013-09-18 01:15:00,
2013-09-17 21:20:00,54.5,43.8,30.45,East,90,0.0,0.0,67,0.00,,,0.00,pywws,2013-09-18 01:20:00,
2013-09-17 21:26:00,54.1,43.8,30.45,East,90,0.0,0.0,68,0.00,,,0.00,pywws,2013-09-18 01:26:00,
2013-09-17 21:32:00,54.1,44.6,30.45,East,90,0.0,0.0,70,0.00,,,0.00,pywws,2013-09-18 01:32:00,
2013-09-17 21:37:00,53.8,44.6,30.45,SE,135,0.0,0.0,71,0.00,,,0.00,pywws,2013-09-18 01:37:00,
2013-09-17 21:43:00,53.6,44.4,30.45,South,180,0.0,0.0,71,0.00,,,0.00,pywws,2013-09-18 01:43:00,
2013-09-17 21:48:00,53.4,44.6,30.45,East,90,0.0,0.0,72,0.00,,,0.00,pywws,2013-09-18 01:48:00,
2013-09-17 21:54:00,53.2,44.4,30.45,East,90,0.0,0.0,72,0.00,,,0.00,pywws,2013-09-18 01:54:00,
2013-09-17 22:00:00,53.1,44.6,30.45,East,90,0.0,0.0,73,0.00,,,0.00,pywws,2013-09-18 02:00:00,
2013-09-17 22:06:00,53.1,44.6,30.45,South,180,0.7,1.6,73,0.00,,,0.00,pywws,2013-09-18 02:06:00,
2013-09-17 22:12:00,53.1,44.6,30.45,East,90,0.0,0.0,73,0.00,,,0.00,pywws,2013-09-18 02:12:00,
2013-09-17 22:18:00,52.9,44.5,30.44,East,90,0.0,0.0,73,0.00,,,0.00,pywws,2013-09-18 02:18:00,
2013-09-17 22:24:00,52.9,44.5,30.44,East,90,0.0,0.0,73,0.00,,,0.00,pywws,2013-09-18 02:24:00,
2013-09-17 22:30:00,52.7,44.3,30.44,NW,315,0.0,0.0,73,0.00,,,0.00,pywws,2013-09-18 02:30:00,
2013-09-17 22:36:00,52.5,44.5,30.45,SE,135,0.0,0.0,74,0.00,,,0.00,pywws,2013-09-18 02:36:00,
2013-09-17 22:41:00,52.3,44.3,30.45,North,0,0.0,0.0,74,0.00,,,0.00,pywws,2013-09-18 02:41:00,
2013-09-17 22:47:00,52.2,44.1,30.45,NW,315,0.0,0.0,74,0.00,,,0.00,pywws,2013-09-18 02:47:00,
2013-09-17 22:52:00,52.0,44.0,30.45,West,270,0.7,2.2,74,0.00,,,0.00,pywws,2013-09-18 02:52:00,
2013-09-17 22:58:00,51.8,44.1,30.45,NW,315,0.0,1.6,75,0.00,,,0.00,pywws,2013-09-18 02:58:00,
2013-09-17 23:04:00,51.8,44.1,30.45,North,0,1.6,2.2,75,0.00,,,0.00,pywws,2013-09-18 03:04:00,
2013-09-17 23:09:00,51.6,44.6,30.45,NW,315,0.7,1.6,77,0.00,,,0.00,pywws,2013-09-18 03:09:00,
2013-09-17 23:15:00,51.6,44.6,30.45,North,0,0.0,0.7,77,0.00,,,0.00,pywws,2013-09-18 03:15:00,
2013-09-17 23:20:00,51.4,44.8,30.45,NW,315,1.6,2.2,78,0.00,,,0.00,pywws,2013-09-18 03:20:00,
2013-09-17 23:26:00,51.3,44.6,30.45,North,0,0.0,0.7,78,0.00,,,0.00,pywws,2013-09-18 03:26:00,
2013-09-17 23:32:00,51.1,44.5,30.45,West,270,0.7,1.6,78,0.00,,,0.00,pywws,2013-09-18 03:32:00,
2013-09-17 23:38:00,50.9,44.6,30.45,NW,315,0.7,2.2,79,0.00,,,0.00,pywws,2013-09-18 03:38:00,
2013-09-17 23:44:00,50.9,44.6,30.45,West,270,0.0,0.0,79,0.00,,,0.00,pywws,2013-09-18 03:44:00,
2013-09-17 23:50:00,50.9,44.6,30.45,West,270,0.0,0.0,79,0.00,,,0.00,pywws,2013-09-18 03:50:00,
2013-09-17 23:56:00,50.5,44.6,30.45,NW,315,0.7,1.6,80,0.00,,,0.00,pywws,2013-09-18 03:56:00,